Zurück zum Katalog

ARIANE 1 DEB

AktivGTO
NORAD 27732·DEBRIS·🇫🇷 France

Gestartet Dec 24, 1979 von Guiana Space Centre

Loading…

TLE

AlterndSource: Space-Track

Epoche: Sep 14, 2026, 13:11 UTC

1 27732U 79104S   26257.54978685  .00000460  00000-0  73863-1 0  9994
2 27732  16.7540 338.7340 7326007 236.8931  31.8730  1.93238128 87779

Verfolge ARIANE 1 DEB in Echtzeit mit AllMySat

Download on the App Store